Location: Chervonnoye
(48.6000°N, 34.4000°E)
Time: 06:41:44
(UTC+00:00)

Cosmos 1943 Rocket - Pass Details

Date: 23 November 2020
Orbit: 811 x 844 km, 71.0° (Epoch: 18 January)

Event Time Altitude Azimuth Distance (km) Brightness Sun altitude
Rises 15:17:30 0° 336° (NNW) 3,351 5.4 -13.4°
Reaches altitude 10° 15:20:18 10° 348° (NNW) 2,419 4.5 -13.9°
Maximum altitude 15:25:00 27° 46° (NE) 1,521 3.1 -14.6°
Enters shadow 15:26:57 22° 79° (E) 1,713 3.2 -14.9°
